TimeCDT,TemperatureF,Dew PointF,Humidity,Sea Level PressureIn,VisibilityMPH,Wind Direction,Wind SpeedMPH,Gust SpeedMPH,PrecipitationIn,Events,Conditions,WindDirDegrees,DateUTC
12:56 AM,62.1,54.0,75,29.44,-9999.0,SSE,6.9,-,N/A,,Unknown,150,2012-10-17 05:56:00
1:56 AM,61.0,55.0,81,29.41,-9999.0,SE,8.1,-,N/A,,Unknown,130,2012-10-17 06:56:00
2:56 AM,59.0,54.0,83,29.39,-9999.0,ESE,5.8,-,N/A,,Unknown,110,2012-10-17 07:56:00
3:56 AM,57.9,54.0,87,29.35,-9999.0,ESE,8.1,-,N/A,,Unknown,110,2012-10-17 08:56:00
4:56 AM,57.0,54.0,89,29.35,-9999.0,East,4.6,-,N/A,,Unknown,90,2012-10-17 09:56:00
5:56 AM,57.9,55.0,90,29.42,-9999.0,North,10.4,-,N/A,,Unknown,360,2012-10-17 10:56:00
6:56 AM,57.9,54.0,87,29.43,-9999.0,North,11.5,-,N/A,,Unknown,360,2012-10-17 11:56:00
7:56 AM,62.1,52.0,70,29.46,-9999.0,North,16.1,24.2,N/A,,Unknown,360,2012-10-17 12:56:00
8:56 AM,64.9,46.9,52,29.52,-9999.0,NNW,25.3,31.1,N/A,,Unknown,340,2012-10-17 13:56:00
9:56 AM,63.0,42.1,46,29.56,-9999.0,North,33.4,46.0,N/A,,Unknown,350,2012-10-17 14:56:00
10:56 AM,66.0,42.1,42,29.57,-9999.0,North,31.1,42.6,N/A,,Unknown,360,2012-10-17 15:56:00
11:56 AM,69.1,36.0,30,29.60,-9999.0,North,25.3,38.0,N/A,,Unknown,10,2012-10-17 16:56:00
12:56 PM,71.1,39.9,32,29.65,-9999.0,North,17.3,26.5,N/A,,Unknown,350,2012-10-17 17:56:00
1:56 PM,72.0,37.0,28,29.66,-9999.0,NNW,18.4,33.4,N/A,,Unknown,340,2012-10-17 18:56:00
2:56 PM,73.0,27.0,18,29.66,-9999.0,NNW,20.7,29.9,N/A,,Unknown,330,2012-10-17 19:56:00
3:56 PM,72.0,24.1,17,29.68,-9999.0,NNW,17.3,38.0,N/A,,Unknown,330,2012-10-17 20:56:00
4:56 PM,69.1,21.9,17,29.71,-9999.0,NNW,24.2,34.5,N/A,,Unknown,340,2012-10-17 21:56:00
5:56 PM,66.9,19.9,17,29.73,-9999.0,NW,25.3,34.5,N/A,,Unknown,320,2012-10-17 22:56:00
6:56 PM,63.0,18.0,18,29.77,-9999.0,NNW,15.0,32.2,N/A,,Unknown,330,2012-10-17 23:56:00
7:56 PM,59.0,19.0,21,29.80,-9999.0,NNW,9.2,-,N/A,,Unknown,330,2012-10-18 00:56:00
8:56 PM,53.1,19.9,27,29.79,-9999.0,North,8.1,-,N/A,,Unknown,10,2012-10-18 01:56:00
9:56 PM,51.1,21.0,31,29.81,-9999.0,NNW,5.8,-,N/A,,Unknown,340,2012-10-18 02:56:00
10:56 PM,48.9,21.9,35,29.84,-9999.0,WNW,4.6,-,N/A,,Unknown,290,2012-10-18 03:56:00
11:56 PM,46.9,21.9,37,29.86,-9999.0,WNW,3.5,-,N/A,,Unknown,300,2012-10-18 04:56:00